الصفحة الرئيسية
METAR-TAF:

METAR-TAF

مطار :

Craig, كولورادو, الولايات المتحدة

دائرة عرض: 40-29-36N, خط طول: 107-31-25W, ارتفاع: 1888 متر

مراقبة الطقس الحالي

تاريخ ووقت الإصدار 46 دقيقة قبل الساعة 14:53UTC
رياح هادئة
درجة الحرارة -17°درجة مئوية
الرطوبة 92%
ضغط 1031 hPa
الرؤية: 16.1 كم
سماء صافية

METAR: KCAG 141453Z AUTO 00000KT 10SM CLR M17/M18 A3046 RMK AO2 SLP416 T11671183 51002

زمن: 08:39 (15:39 UTC)


TAF: مفقودة

أرصاد الطقس والتوقعات من أكثر من 4000 مطار (تقارير الطقس للمطار METAR والتنبؤ بالطقس بالمطارTAF).

المحطات المتاحة هي النقط الصفراء والحمراء على الخريطة.

حرك المؤشر فوق النقطة لمعرفة اسم المحطة.

ثم انقر لمعرفة أرصاد وتوقعات الطقس.

لتغيير الخارطة: اضغط على الأزرار الخضراء مع رمز الصليب الأسود للتكبير. على الزر الأخضر مع شرطة للتصغير، أو على الأسهم الخضراء للخرائط المجاورة.


METAR-TAF: